Tracking 21076 objects as of 7-Aug-2020
HD Live streaming from Space Station
objects crossing your sky now

FREGAT DEB

Track FREGAT DEB now!
10-day predictions


NORAD ID: 45822
Int'l Code: 2011-037BG
Perigee: 542.1 km
Apogee: 3,396.9 km
Inclination: 51.5 °
Period: 126.3 minutes
Semi major axis: 8340 km
RCS: Unknown
Launch date: July 18, 2011
Source: Commonwealth of Independent States (former USSR) (CIS)
Launch site: TYURATAM MISSILE AND SPACE COMPLEX (TTMTR)

Note: This is SATELLITE DEBRIS
aabbcc
Your satellite tracking list
Your tracking list is empty




NASA's NSSDC Master Catalog

Two Line Element Set (TLE):
1 45822U 11037BG  20219.39228513  .00001595  00000-0  88404-3 0  9997
2 45822  51.5108 221.7359 1711390 163.0908 203.5070 11.39769437  7386
Source of the keplerian elements: AFSPC